EST,Max TemperatureF,Mean TemperatureF,Min TemperatureF,Max Dew PointF,MeanDew PointF,Min DewpointF,Max Humidity, Mean Humidity, Min Humidity, Max Sea Level PressureIn, Mean Sea Level PressureIn, Min Sea Level PressureIn, Max VisibilityMiles, Mean VisibilityMiles, Min VisibilityMiles, Max Wind SpeedMPH, Mean Wind SpeedMPH, Max Gust SpeedMPH,PrecipitationIn, CloudCover, Events, WindDirDegrees
2012-12-1,63,49,35,44,39,32,89,70,51,30.34,30.27,30.22,10,10,10,12,2,15,0.00,1,,174
2012-12-2,67,58,49,56,50,41,100,76,52,30.23,30.16,30.11,10,6,0,18,5,23,0.60,6,Fog-Rain,197
2012-12-3,70,63,56,54,52,50,86,72,57,30.22,30.17,30.13,10,10,10,12,6,21,0.00,5,,194
2012-12-4,68,57,45,56,49,42,100,78,55,30.21,30.13,30.05,10,9,3,22,7,29,0.16,6,Rain,225
2012-12-5,54,45,36,43,37,29,100,75,50,30.33,30.28,30.21,10,9,2,9,4,13,0.02,1,Rain,343
2012-12-6,53,41,29,46,34,27,92,73,54,30.28,30.15,30.03,10,10,10,9,5,13,T,3,Rain,117
2012-12-7,55,53,50,52,50,46,96,90,83,30.02,29.96,29.88,10,4,0,10,3,14,0.26,8,Fog-Rain,178
2012-12-8,61,57,52,56,53,50,93,86,78,30.02,29.92,29.88,10,8,2,13,5,18,0.25,8,Rain,224
2012-12-9,62,56,49,57,52,48,100,94,87,30.03,29.95,29.76,10,5,0,15,6,21,0.42,8,Fog-Rain,93
2012-12-10,61,54,46,55,54,45,94,91,71,29.76,29.69,29.63,10,5,2,14,10,25,0.24,7,Rain,235
2012-12-11,37,33,28,30,26,23,89,74,59,30.27,30.17,30.06,10,9,5,13,4,17,T,7,,238
2012-12-12,42,33,23,28,25,21,100,77,53,30.44,30.37,30.28,10,6,0,8,1,10,0.00,0,Fog,32
2012-12-13,49,36,22,31,26,21,100,71,42,30.44,30.38,30.29,10,5,0,6,1,8,0.00,0,Fog,33
2012-12-14,54,39,24,33,26,20,100,64,28,30.37,30.30,30.21,10,9,7,8,3,10,0.00,0,,167
2012-12-15,56,45,33,41,33,28,82,64,46,30.20,30.05,29.87,10,10,10,10,3,15,T,4,Rain,142
2012-12-16,60,57,54,52,49,36,80,64,47,29.88,29.80,29.72,10,10,10,13,7,18,0.00,6,,196
2012-12-17,58,52,45,52,49,43,100,86,72,29.76,29.66,29.56,10,8,1,29,5,48,0.47,7,Rain-Thunderstorm,188
2012-12-18,46,42,37,43,38,33,92,81,70,29.90,29.78,29.60,10,10,7,16,7,24,0.03,7,Rain,237
2012-12-19,53,45,36,38,35,31,89,72,54,30.11,30.02,29.84,10,10,7,10,5,14,0.00,1,,180
2012-12-20,53,44,35,47,38,28,92,78,64,30.01,29.66,29.42,10,8,5,29,10,44,0.50,6,Rain-Snow,165
2012-12-21,35,31,27,28,23,20,85,76,66,30.03,29.73,29.60,10,5,1,28,16,40,0.02,8,Snow,255
2012-12-22,35,30,24,22,21,20,88,72,56,30.27,30.16,30.01,10,10,9,18,6,28,T,5,Snow,254
2012-12-23,51,38,24,28,23,18,81,60,38,30.12,30.01,29.94,10,10,10,15,5,23,0.00,0,,210
2012-12-24,48,39,30,45,38,27,100,89,78,29.96,29.86,29.77,10,7,2,9,3,13,0.05,8,Rain,216
2012-12-25,46,40,34,41,32,27,89,80,70,30.17,30.07,29.95,10,7,4,16,7,22,0.00,8,,5
2012-12-26,43,38,32,41,36,27,100,91,82,29.98,29.63,29.46,10,6,2,25,9,32,0.63,8,Rain-Snow,38
2012-12-27,32,31,29,28,24,21,85,79,72,30.19,30.08,29.85,10,10,7,17,5,25,0.00,8,,277
2012-12-28,39,34,29,31,27,26,92,78,64,30.17,30.05,29.85,10,9,2,8,4,12,0.10,5,Snow,88
2012-12-29,34,32,29,32,30,24,100,93,85,30.17,29.80,29.67,10,4,0,16,7,29,0.29,8,Fog-Rain-Snow,276
2012-12-30,33,28,23,23,20,19,88,76,63,30.48,30.39,30.20,10,10,7,17,6,29,T,5,Snow,256
2012-12-31,37,29,21,27,23,19,96,80,64,30.39,30.24,30.11,10,10,7,10,4,14,0.01,5,Rain,196